This is the latest recevied weather packets stored in our database for station/object DO7ZT-13. If no packets are shown the sender has not sent any weather packets the latest 1 day(s).
| Time | Temp. | Humidity | Pressure | Rain* | Wind** | Luminosity | Snow |
|---|---|---|---|---|---|---|---|
| 1778075427 | 18.89° C | 61% | 1005.8 hPa | 0 mm | 1.34 m/s, 302° | - | - |
| 1778073914 | 17.78° C | 67% | 1006 hPa | 0 mm | 0.45 m/s, 300° | - | - |
| 1778072114 | 18.89° C | 58% | 1006.1 hPa | 0 mm | 1.34 m/s, 251° | - | - |
| 1778071526 | 18.89° C | 58% | 1006 hPa | 0 mm | 0 m/s | - | - |
| 1778070926 | 18.89° C | 57% | 1006 hPa | 0 mm | 1.34 m/s, 245° | - | - |
| 1778069726 | 18.89° C | 58% | 1006 hPa | 0 mm | 2.24 m/s, 252° | - | - |
| 1778068526 | 18.89° C | 55% | 1006 hPa | 0 mm | 0.89 m/s, 261° | - | - |
| 1778068213 | 18.89° C | 55% | 1006 hPa | 0 mm | 0.89 m/s, 280° | - | - |
| 1778067613 | 17.78° C | 58% | 1006 hPa | 0 mm | 1.34 m/s, 270° | - | - |
| 1778066125 | 17.78° C | 63% | 1006.1 hPa | 0 mm | 0.89 m/s, 284° | - | - |
| 1778065213 | 17.22° C | 67% | 1006.1 hPa | 0 mm | 0.45 m/s, 252° | - | - |
| 1778064925 | 17.22° C | 66% | 1006.1 hPa | 0 mm | 0.89 m/s, 249° | - | - |
| 1778064025 | 17.22° C | 67% | 1006.2 hPa | 0 mm | 1.34 m/s, 240° | - | - |
| 1778063425 | 17.78° C | 65% | 1006.1 hPa | 0 mm | 1.79 m/s, 187° | - | - |
| 1778063112 | 17.78° C | 65% | 1006.1 hPa | 0 mm | 1.79 m/s, 262° | - | - |
| 1778062825 | 17.78° C | 66% | 1006.1 hPa | 0 mm | 0.89 m/s, 198° | - | - |
| 1778062225 | 17.22° C | 68% | 1006 hPa | 0 mm | 0.45 m/s, 212° | - | - |
| 1778061625 | 17.78° C | 66% | 1005.9 hPa | 0 mm | 0.89 m/s, 250° | - | - |
| 1778061025 | 17.22° C | 65% | 1005.9 hPa | 0 mm | 1.79 m/s, 154° | - | - |
| 1778060425 | 17.22° C | 67% | 1006 hPa | 0 mm | 1.34 m/s, 0° | - | - |
| 1778059825 | 16.11° C | 71% | 1005.8 hPa | 0 mm | 0.89 m/s, 186° | - | - |
| 1778059225 | 17.22° C | 70% | 1005.8 hPa | 0 mm | 2.24 m/s, 174° | - | - |
| 1778058625 | 17.22° C | 70% | 1005.6 hPa | 0 mm | 0.45 m/s, 179° | - | - |
| 1778057712 | 17.22° C | 69% | 1005.5 hPa | 0 mm | 1.34 m/s, 6° | - | - |
| 1778057425 | 16.11° C | 71% | 1005.5 hPa | 0 mm | 0.89 m/s, 174° | - | - |
* Rain latest hour (hover to see other rain measurements)
** Current wind speed in m/s (hover to see current wind gust speed)